Regional Weather Roundup
Issued by NWS

Home | Current Version | Previous Version | Graphics & Text | Print | Product List | Glossary Off
Versions: 1 2 3 4 5 6 7 8 9 10 11 12 13 14 15 16 17 18 19 20 21 22 23 24 25 26 27 28 29 30 31 32 33 34 35 36 37 38 39 40 41 42 43 44 45 46 47 48 49 50

000
ASUS43 KTOP 231208
RWRKS

WEATHER ROUNDUP FOR KANSAS
NATIONAL WEATHER SERVICE GOODLAND KS
700 AM CDT TUE SEP 23 2014

NOTE:  "FAIR" INDICATES FEW OR NO CLOUDS BELOW 12,000 FEET WITH NO
SIGNIFICANT WEATHER AND/OR OBSTRUCTIONS TO VISIBILITY.

KSZ001>006-013>018-027>032-041>047-231300-
NORTHWEST KANSAS

CITY           SKY/WX    TMP DP  RH WIND       PRES   REMARKS
GOODLAND       PTCLDY    56  55  97 S10       30.07S
6HR MIN TEMP:  56; 6HR MAX TEMP:  59; 6HR PCP:  0.01;

HILL CITY      MOCLDY    59  56  89 SE5       30.07R
6HR MIN TEMP:  58; 6HR MAX TEMP:  68; 6HR PCP:  0.44;

RUSSELL        TSTM      58  54  86 S22G29    30.11F FOG
6HR MIN TEMP:  57; 6HR MAX TEMP:  65; 6HR PCP:  1.47;

$$

KSZ061>065-074>080-084>089-231300-
SOUTHWEST KANSAS

CITY           SKY/WX    TMP DP  RH WIND       PRES   REMARKS
DODGE CITY     CLOUDY    62  46  55 S16       30.11F
6HR MIN TEMP:  61; 6HR MAX TEMP:  65;

ELKHART          N/A     64  58  81 S12         N/A
GARDEN CITY    CLEAR     60  52  74 S12       30.07S
6HR MIN TEMP:  59; 6HR MAX TEMP:  65;

GREAT BEND     CLOUDY    57  52  82 NE7       30.18R
LIBERAL        CLEAR     64  48  55 S16G22    30.12S
PRATT          CLOUDY    61  46  59 S12       30.17R
$$

KSZ066>073-081>083-090>101-231300-
SOUTHEAST KANSAS

CITY           SKY/WX    TMP DP  RH WIND       PRES   REMARKS
CHANUTE        PTCLDY    54  52  93 SE6       30.22R
6HR MIN TEMP:  54; 6HR MAX TEMP:  57;

COFFEYVILLE    PTCLDY    56  53  90 SE5       30.21S
6HR MIN TEMP:  53; 6HR MAX TEMP:  57;

HUTCHINSON     LGT RAIN  60  53  77 SE10      30.17F
6HR MIN TEMP:  60; 6HR MAX TEMP:  62; 6HR PCP: TRACE;

MEDICINE LODGE   N/A     60  52  74 SE7       30.16F
NEWTON         CLOUDY    57  48  72 SE8       30.20F
PARSONS        PTCLDY    58  54  86 SE3       30.23R
6HR MIN TEMP:  52; 6HR MAX TEMP:  59;

WICHITA INTL   CLOUDY    58  51  78 SE7       30.18F
6HR MIN TEMP:  58; 6HR MAX TEMP:  63;

WICHITA JABRA  MOCLDY    58  51  78 S7        30.19S
6HR MIN TEMP:  57; 6HR MAX TEMP:  60;

WICHITA MCCONL CLOUDY    60  54  80 SE7       30.20S
WINFIELD       PTCLDY    57  53  86 SE3       30.21R
6HR MIN TEMP:  56; 6HR MAX TEMP:  60;

$$

KSZ007>012-019>026-033>040-048>060-102>105-231300-
NORTHEAST KANSAS

CITY           SKY/WX    TMP DP  RH WIND       PRES   REMARKS
CONCORDIA      LGT RAIN  57  56  96 S22G36    30.08F
6HR MIN TEMP:  57; 6HR MAX TEMP:  62; 6HR PCP:  0.14;

EMPORIA        PTCLDY    53  51  93 CALM      30.22R
6HR MIN TEMP:  53; 6HR MAX TEMP:  57;

LAWRENCE       MOCLDY    54  51  90 CALM      30.24R
6HR MIN TEMP:  48; 6HR MAX TEMP:  54;

MANHATTAN      CLOUDY    58  53  84 S5        30.21R
6HR MIN TEMP:  58; 6HR MAX TEMP:  62;

MARYSVILLE     CLOUDY    59  54  82 SE13      30.14F
OLATHE IND     MOCLDY    55  50  83 SE6       30.23R
6HR MIN TEMP:  53; 6HR MAX TEMP:  57;

OLATHE EXE     CLOUDY    54  49  83 SE6       30.22S
6HR MIN TEMP:  54; 6HR MAX TEMP:  58;

SALINA         LGT RAIN  59  56  89 S7        30.20S
6HR MIN TEMP:  59; 6HR MAX TEMP:  64; 6HR PCP:  0.19;

TOPEKA BILLARD MOCLDY    57  53  86 CALM      30.23R
6HR MIN TEMP:  54; 6HR MAX TEMP:  58;

TOPEKA FORBES  MOCLDY    56  51  84 CALM      30.23R
6HR MIN TEMP:  52; 6HR MAX TEMP:  56;

$$


USA.gov is the U.S. government's official web portal to all federal, state and local government web resources and services.